Location: ČR
(50.0000°N, 15.0000°E)
Time: 06:20:25
(UTC+01:00)

Tiros 1 despin weight - Pass Details

Date: 20 September 2025
Orbit: 559 x 596 km, 48.2° (Epoch: 08 December)

Event Time Altitude Azimuth Distance (km) Brightness Sun altitude
Exits shadow 05:51:46 12° 259° (W) 1,726 ? -9.1°
Maximum altitude 05:55:39 69° 178° (S) 603 ? -8.4°
Drops below altitude 10° 05:59:50 10° 94° (E) 1,847 ? -7.8°
Sets 06:02:06 0° 92° (E) 2,740 ? -7.4°
